Home   Weather   Madaba   Past weeks

Flag for Jordan Past Weather in Madaba, Jordan — Yesterday and Last 2 Weeks

Now
82 °F

Clear.


Feels Like: 80 °F
Forecast: 56 / 78 °F
Wind: 9 mph from Southeast

Location: Queen Alia Airport

Current Time: Apr 30, 2017 at 12:12:52 pm

Latest Report: Apr 30, 2017 at 11:00 am


Visibility: 4 mi

Pressure: 29.95 "Hg (27.39 "Hg at 788m altitude)

Humidity: 14%

Dew Point: 28 °F

Location of MadabaLocation

Past Weather in Madaba — Graph

°F

Madaba Temperature Yesterday

Maximum temperature yesterday: 81 °F (at 3:00 pm)
Minimum temperature yesterday: 41 °F (at 5:00 am)
Average temperature yesterday: 65 °F

High & Low Weather Summary for the Past Weeks

 TemperatureHumidityPressure
High93 °F (Apr 22, 4:00 pm)93% (Apr 16, 6:00 am)30.18 "Hg (Apr 16, 6:00 am)
Low39 °F (Apr 25, 6:00 am)8% (Apr 27, 1:00 pm)29.80 "Hg (Apr 22, 5:00 pm)
Average65 °F39%30.05 "Hg
* Reported Apr 15 10:00 am — Apr 30 10:00 am, Madaba, Weather by CustomWeather, © 2017

Note: Actual official high and low records may vary slightly from our data, if they occured in-between our weather recording intervals... More about our weather records

Advertising

Madaba Weather History for the Previous 24 Hours

Scroll right to see more
 ConditionsComfort  
Time TempWeatherWind HumidityBarometerVisibility
10:00 am
Sun, Apr 30
75 °FClear.7 mph22%29.98 "Hg4 mi
9:00 am70 °FClear.No wind33%29.98 "Hg4 mi
8:00 am63 °FSunny.6 mph27%29.98 "Hg10 mi
7:00 am55 °FSunny.6 mph44%29.98 "Hg10 mi
6:00 am46 °FSunny.No wind40%29.95 "Hg10 mi
5:00 am52 °FClear.No wind50%29.95 "Hg10 mi
4:00 am52 °FClear.No wind47%29.95 "Hg10 mi
12:00 am57 °FClear.No wind39%29.98 "Hg10 mi
11:00 pm
Sat, Apr 29
59 °FClear.No wind39%29.98 "Hg10 mi
10:00 pm66 °FClear.No wind32%29.98 "Hg10 mi
9:00 pm68 °FClear.6 mph28%29.95 "Hg10 mi
8:00 pm72 °FClear.6 mph20%29.95 "Hg10 mi
7:00 pm75 °FSunny.8 mph16%29.95 "Hg10 mi
6:00 pm79 °FSunny.8 mph11%29.92 "Hg10 mi
5:00 pm79 °FClear.8 mph17%29.92 "Hg4 mi
4:00 pm79 °FClear.8 mph17%29.95 "Hg4 mi
3:00 pm81 °FClear.8 mph16%29.98 "Hg4 mi
2:00 pm79 °FClear.8 mph16%29.98 "Hg4 mi
1:00 pm77 °FClear.6 mph17%30.01 "Hg4 mi
12:00 pm75 °FClear.5 mph19%30.01 "Hg4 mi
Weather by CustomWeather, © 2017

See weather overviewHow to use our weather pages